Location: Ahausen
(50.4985°N, 8.2722°E)
Time: 15:14:39
(UTC+00:00)

MOS 1 Rocket - Pass Details

Date: 18 September 2020
Orbit: 614 x 831 km, 97.4° (Epoch: 22 October)

Event Time Altitude Azimuth Distance (km) Brightness Sun altitude
Rises 18:56:14 0° 11° (NNE) 3,050 6.7 -13.7°
Reaches altitude 10° 18:58:32 10° 10° (N) 2,100 5.9 -14.1°
Maximum altitude 19:03:05 76° 286° (WNW) 667 3.3 -14.8°
Drops below altitude 10° 19:07:24 10° 201° (SSW) 1,994 5.7 -15.4°
Sets 19:09:32 0° 200° (SSW) 2,883 6.5 -15.7°
